This is the latest recevied weather packets stored in our database for station/object CT2HRB-13. If no packets are shown the sender has not sent any weather packets the latest 10 day(s).
| Time | Temp. | Humidity | Pressure | Rain* | Wind** | Luminosity | Snow |
|---|---|---|---|---|---|---|---|
| 1777626001 | 18.33° C | 55% | 1018.8 hPa | - | - | - | - |
| 1777625702 | 18.33° C | 56% | 1019.1 hPa | - | - | - | - |
| 1777625402 | 18.33° C | 54% | 1019.2 hPa | - | - | - | - |
| 1777625102 | 18.33° C | 56% | 1019 hPa | - | - | - | - |
| 1777624802 | 17.78° C | 57% | 1018.8 hPa | - | - | - | - |
| 1777624502 | 17.78° C | 56% | 1018.6 hPa | - | - | - | - |
| 1777624202 | 17.78° C | 55% | 1018.9 hPa | - | - | - | - |
| 1777623902 | 17.78° C | 58% | 1018.6 hPa | - | - | - | - |
| 1777623601 | 17.78° C | 58% | 1018.6 hPa | - | - | - | - |
| 1777623302 | 17.78° C | 57% | 1018.6 hPa | - | - | - | - |
| 1777623002 | 17.78° C | 58% | 1018.6 hPa | - | - | - | - |
| 1777622702 | 17.22° C | 64% | 1018.9 hPa | - | - | - | - |
| 1777622401 | 17.22° C | 63% | 1018.6 hPa | - | - | - | - |
| 1777622101 | 17.22° C | 66% | 1018.9 hPa | - | - | - | - |
| 1777621802 | 17.22° C | 65% | 1018.9 hPa | - | - | - | - |
| 1777621502 | 17.22° C | 66% | 1018.9 hPa | - | - | - | - |
| 1777621202 | 17.22° C | 67% | 1018.9 hPa | - | - | - | - |
| 1777620902 | 17.22° C | 67% | 1018.6 hPa | - | - | - | - |
| 1777620601 | 17.22° C | 68% | 1018.3 hPa | - | - | - | - |
| 1777620302 | 16.67° C | 68% | 1018.2 hPa | - | - | - | - |
| 1777620001 | 16.67° C | 67% | 1018.1 hPa | - | - | - | - |
| 1777619702 | 16.67° C | 67% | 1018.1 hPa | - | - | - | - |
| 1777619401 | 16.67° C | 68% | 1018.1 hPa | - | - | - | - |
| 1777619101 | 16.67° C | 69% | 1018.1 hPa | - | - | - | - |
| 1777618801 | 16.67° C | 70% | 1018.4 hPa | - | - | - | - |
* Rain since midnight (hover to see other rain measurements)
** Current wind speed in m/s (hover to see current wind gust speed)